Plymouth, MA

1:38 PM EST on November 24, 2017 (GMT -0500)
Plymouth Municipal

Weather History for KPYM - March, 2013

Change the Weather History Date:

Tuesday, March 5, 2013

  Actual Average Record
Temperature  
Mean Temperature 35 °F -  
Max Temperature 42 °F 44 °F 64 °F (1974)
Min Temperature 28 °F 23 °F 9 °F (2017)
Degree Days  
Heating Degree Days 30    
Moisture  
Dew Point 27 °F    
Average Humidity 70    
Maximum Humidity 92    
Minimum Humidity 57    
Precipitation  
Precipitation 0.00 in - - ()
Sea Level Pressure  
Sea Level Pressure 29.95 in    
Wind  
Wind Speed 11 mph (North)    
Max Wind Speed 16 mph    
Max Gust Speed 24 mph    
Visibility 10 miles    
Events Rain    
Averages and records for this station are not official NWS values.
T = Trace of Precipitation, MM = Missing Value Source: NWS Daily Summary

Daily Weather History Graph

Daily Weather History Graph

Search for Another Location

Airport or City:

Trip Planner

Search our weather history database for the weather conditions in past years. The results will help you decide how hot, cold, wet, or windy it might be!

Date:

Astronomy

Mar. 05, 2013 Rise Set
Actual Time 6:11 AM EST 5:38 PM EST
Civil Twilight 5:43 AM EST 6:06 PM EST
Nautical Twilight 5:11 AM EST 6:38 PM EST
Astronomical Twilight 4:38 AM EST 7:10 PM EST
Moon 1:24 AM EST (3/5) 11:09 AM EST (3/5)
Length of Visible Light 12h 22m
Length of Day
11h 27m
Last Quarter, 41% of the Moon is Illuminated
Mar 5
Last Quarter
Mar 11
New
Mar 19
First Quarter
Mar 27
Full
Apr 3
Last Quarter

Hourly Weather History & Observations

Time (EST) Temp. Windchill Dew Point Humidity Pressure Visibility Wind Dir Wind Speed Gust Speed Precip Events Conditions
12:52 AM 33.1 °F 23.4 °F 21.9 °F 64% 29.73 in 10.0 mi NW 13.8 mph 20.7 mph N/A   Mostly Cloudy
2:52 AM 33.1 °F 23.9 °F 21.0 °F 61% 29.76 in 10.0 mi NW 12.7 mph 23.0 mph N/A   Overcast
3:52 AM 33.1 °F 24.9 °F 21.0 °F 61% 29.78 in 10.0 mi WNW 10.4 mph - N/A   Overcast
4:52 AM 33.1 °F 24.9 °F 21.0 °F 61% 29.81 in 10.0 mi NW 10.4 mph - N/A   Mostly Cloudy
5:52 AM 33.1 °F 24.9 °F 21.0 °F 61% 29.84 in 10.0 mi NW 10.4 mph - N/A   Overcast
6:52 AM 34.0 °F 26.6 °F 21.9 °F 61% 29.86 in 10.0 mi NNW 9.2 mph - N/A   Overcast
7:52 AM 35.1 °F 28.6 °F 21.9 °F 59% 29.89 in 10.0 mi NW 8.1 mph - N/A   Overcast
8:52 AM 37.9 °F 29.2 °F 24.1 °F 57% 29.91 in 10.0 mi NNW 15.0 mph 20.7 mph N/A   Overcast
9:08 AM 37.4 °F 28.5 °F 24.8 °F 60% 29.90 in 10.0 mi North 15.0 mph 21.9 mph N/A   Overcast
9:34 AM 37.4 °F 28.2 °F 24.8 °F 60% 29.91 in 10.0 mi North 16.1 mph - N/A   Overcast
9:52 AM 37.9 °F 29.2 °F 24.1 °F 57% 29.92 in 10.0 mi NNW 15.0 mph 19.6 mph N/A   Overcast
10:52 AM 39.9 °F 33.4 °F 26.1 °F 58% 29.93 in 10.0 mi North 10.4 mph 18.4 mph N/A   Overcast
11:52 AM 41.0 °F 34.3 °F 27.0 °F 57% 29.94 in 10.0 mi NNW 11.5 mph 18.4 mph N/A   Overcast
12:52 PM 39.9 °F 31.8 °F 28.9 °F 65% 29.95 in 10.0 mi NNE 15.0 mph - N/A   Overcast
1:52 PM 41.0 °F 33.5 °F 30.0 °F 65% 29.96 in 10.0 mi North 13.8 mph 19.6 mph N/A   Overcast
2:52 PM 41.0 °F 33.1 °F 30.9 °F 67% 29.96 in 10.0 mi North 15.0 mph 24.2 mph 0.00 in   Overcast
3:29 PM 42.8 °F 35.1 °F 30.2 °F 61% 29.97 in 10.0 mi NNE 16.1 mph 21.9 mph N/A   Overcast
3:52 PM 41.0 °F 34.3 °F 30.9 °F 67% 29.99 in 10.0 mi NNE 11.5 mph 20.7 mph N/A   Overcast
4:03 PM 41.0 °F 34.7 °F 30.2 °F 65% 29.99 in 10.0 mi NE 10.4 mph 19.6 mph N/A   Overcast
4:38 PM 39.2 °F 32.5 °F 32.0 °F 75% 30.00 in 10.0 mi NE 10.4 mph - N/A   Overcast
4:52 PM 39.9 °F 32.9 °F 32.0 °F 73% 30.01 in 10.0 mi NNE 11.5 mph - N/A   Overcast
5:52 PM 37.9 °F 32.7 °F 32.0 °F 79% 30.02 in 10.0 mi NNE 6.9 mph - N/A   Mostly Cloudy
6:52 PM 37.0 °F 34.5 °F 30.9 °F 79% 30.04 in 10.0 mi NW 3.5 mph - N/A   Mostly Cloudy
7:52 PM 32.0 °F - 28.0 °F 85% 30.05 in 10.0 mi Calm Calm - N/A   Scattered Clouds
8:52 PM 30.9 °F - 28.0 °F 89% 30.04 in 10.0 mi Calm Calm - N/A   Mostly Cloudy
9:52 PM 30.0 °F - 27.0 °F 88% 30.04 in 10.0 mi Calm Calm - N/A   Clear
10:52 PM 28.9 °F - 27.0 °F 92% 30.05 in 10.0 mi Calm Calm - N/A   Mostly Cloudy
11:35 PM 30.2 °F - 26.6 °F 86% 30.04 in 10.0 mi Calm Calm - N/A   Mostly Cloudy
11:52 PM 30.0 °F 26.5 °F 27.0 °F 88% 30.05 in 9.0 mi North 3.5 mph - 0.00 in   Overcast
11:59 PM 32.0 °F 27.5 °F 28.4 °F 87% 30.03 in 6.0 mi North 4.6 mph - 0.00 in Rain Light Freezing Rain